Regional Weather Roundup
Issued by NWS

Home | Current Version | Previous Version | Text Only | Print | Product List | Glossary On
Versions: 1 2 3 4 5 6 7 8 9 10 11 12 13 14 15 16 17 18 19 20 21 22 23 24 25 26 27 28 29 30 31 32 33 34 35 36 37 38 39 40 41 42 43 44 45 46 47 48 49 50
000
ASUS45 KSLC 200710
RWRUT

UTAH REGIONAL WEATHER ROUNDUP
NATIONAL WEATHER SERVICE SALT LAKE CITY UT
1200 AM MST FRI JAN 20 2017

UTZ001>011-023>025-200800-

NORTHERN UTAH

CITY           SKY/WX    TMP DP  RH WIND       PRES   REMARKS
BRIGHAM CITY     N/A     30  28  92 NE6       29.70F WCI  24
HILL AFB       FOG       30  30 100 W5        29.67F VSB 1/4 WCI  25
LOGAN          CLOUDY    27  27 100 CALM      29.68F FOG
OGDEN          FOG       28  28 100 CALM      29.68S VSB 1/2
SALT LAKE CITY FOG       29  29 100 W3        29.69S VSB 1/4
TOOELE VALLEY  FOG       30  30 100 W5        29.69F VSB 1/4 WCI  25
WENDOVER       CLOUDY    25  23  93 CALM      29.70S VSB 3/4
HEBER CITY     LGT SNOW  30  30 100 CALM      29.63F
WEST JORDAN    CLOUDY    31  31 100 CALM      29.68F VSB 1/2

$$

UTZ011>015-024>027-200800-

CENTRAL/NORTHEAST UTAH

CITY           SKY/WX    TMP DP  RH WIND       PRES   REMARKS
PROVO AIRPORT  FOG       32  31  96 CALM      29.68F VSB 1/4
MOAB/CANYONLAN LGT SNOW  31  31 100 NW3       29.64F FOG
DELTA          CLOUDY    32  32 100 CALM      29.68S
PRICE          FOG       24  24 100 NE5       29.64F VSB 1/4 WCI  18
RICHFIELD      CLOUDY    32  32 100 CALM      29.68S FOG
ROOSEVELT      LGT SNOW  19  16  86 CALM      29.72F
VERNAL         LGT SNOW  17  14  88 E3        29.69F FOG

$$

UTZ013>016-019>022-027-200800-

SOUTHERN UTAH

CITY           SKY/WX    TMP DP  RH WIND       PRES   REMARKS
BRYCE CANYON   LGT SNOW  24  21  88 SE9       29.65F FOG     WCI  14
CEDAR CITY     CLOUDY    30  28  92 SW12      29.70R WCI  20
MILFORD        LGT SNOW  31  30  96 N3        29.68F VSB 3/4
ST GEORGE      CLOUDY    39  34  81 N3        29.80R
HANKSVILLE     CLOUDY    32  32 100 MISG      29.68F
KANAB          CLOUDY    34  34 100 S1        29.76F
BLANDING       CLOUDY    31  31 100 S3        29.74F VSB 1

$$

REGIONAL REPORTS     COLORADO/ARIZONA

CITY           SKY/WX    TMP DP  RH WIND       PRES   REMARKS
CRAIG, CO      LGT SNOW  28  26  92 CALM      29.62F FOG
GRAND JUNCTION CLOUDY    31  31 100 CALM      29.64F FOG
RIFLE, CO      LGT SNOW  31  31 100 CALM      29.64F FOG
MONTROSE, CO   CLOUDY    31  31 100 S5        29.67F WCI  26
CORTEZ, CO     NOT AVBL
COLORADO CITY  CLOUDY    34  34 100 NW5       29.78S WCI  30
PAGE, AZ       CLOUDY    38  32  79 SW3       29.70F
GRAND CANYON   LGT SNOW  28  28 100 SW15      29.76F FOG     WCI  16
KINGMAN, AZ    MOCLDY    43  37  79 SW20      29.78F
FLAGSTAFF, AZ  LGT SNOW  27  26  96 SW14      29.76F VSB 3/4 WCI  16

$$

REGIONAL REPORTS    NEVADA/IDAHO/WYOMING

CITY           SKY/WX    TMP DP  RH WIND       PRES   REMARKS
LAS VEGAS, NV  PTCLDY    50  31  48 SW9       29.72F
ELY, NY        CLOUDY    16  13  88 SW7       29.68F FOG     WCI   6
ELKO, NV       PTCLDY    20  17  88 CALM      29.65F
POCATELLO, ID  FLURRIES  31  28  89 S10       29.66F WCI  22
BURLEY, ID     CLOUDY    34  31  88 S3        29.63F
FORT BRIDGER,  CLOUDY    28  28 100 SW12      29.64F WCI  18
EVANSTON, WY   FOG       25  21  85 SW7       29.61F VSB 1/4 WCI  17
ROCK SPRINGS,  CLOUDY    22  20  92 W7        29.60F WCI  13

$$



USA.gov is the U.S. government's official web portal to all federal, state and local government web resources and services.